This is the latest recevied weather packets stored in our database for station/object KQ7A. If no packets are shown the sender has not sent any weather packets the latest 10 day(s).
| Time | Temp. | Humidity | Pressure | Rain* | Wind** | Luminosity | Snow |
|---|---|---|---|---|---|---|---|
| 1788536298 | 15.56° C | 52% | 1013.9 hPa | 0 mm | - | 48 W/m² | - |
| 1788535992 | 15.56° C | 51% | 1013.7 hPa | 0 mm | - | 50 W/m² | - |
| 1788535689 | 15.56° C | 51% | 1013.6 hPa | 0 mm | - | 52 W/m² | - |
| 1788535383 | 15.56° C | 54% | 1013.6 hPa | 0 mm | - | 35 W/m² | - |
| 1788535078 | 15.56° C | 52% | 1013.6 hPa | 0 mm | - | 35 W/m² | - |
| 1788534777 | 15° C | 54% | 1013.8 hPa | 0 mm | - | 38 W/m² | - |
| 1788534474 | 15° C | 54% | 1013.7 hPa | 0 mm | - | 32 W/m² | - |
| 1788534168 | 15° C | 54% | 1013.9 hPa | 0 mm | - | 29 W/m² | - |
| 1788533866 | 15.56° C | 52% | 1013.8 hPa | 0 mm | - | 27 W/m² | - |
| 1788533562 | 15.56° C | 51% | 1013.6 hPa | 0 mm | - | 30 W/m² | - |
| 1788533257 | 15° C | 54% | 1013.6 hPa | 0 mm | - | 30 W/m² | - |
| 1788532953 | 15° C | 54% | 1013.7 hPa | 0 mm | - | 25 W/m² | - |
| 1788532648 | 15° C | 53% | 1013.3 hPa | 0 mm | - | 26 W/m² | - |
| 1788532345 | 15° C | 54% | 1013.3 hPa | 0 mm | - | 26 W/m² | - |
| 1788532041 | 15° C | 53% | 1013.3 hPa | 0 mm | - | 20 W/m² | - |
| 1788531737 | 15° C | 54% | 1013.3 hPa | 0 mm | - | 14 W/m² | - |
| 1788531437 | 15° C | 53% | 1013.5 hPa | 0 mm | - | 10 W/m² | - |
| 1788531133 | 15° C | 55% | 1013.2 hPa | 0 mm | - | 7 W/m² | - |
| 1788530828 | 15° C | 55% | 1012.9 hPa | 0 mm | - | 6 W/m² | - |
| 1788530523 | 15° C | 54% | 1013.2 hPa | 0 mm | - | 3 W/m² | - |
| 1788530221 | 15° C | 54% | 1012.9 hPa | 0 mm | - | 3 W/m² | - |
| 1788529917 | 15° C | 53% | 1012.9 hPa | 0 mm | - | 1 W/m² | - |
| 1788529613 | 15° C | 54% | 1012.9 hPa | 0 mm | - | 2 W/m² | - |
| 1788529312 | 15° C | 53% | 1012.8 hPa | 0 mm | - | 0 W/m² | - |
| 1788529007 | 15.56° C | 51% | 1012.9 hPa | 0 mm | - | 0 W/m² | - |
* Rain latest hour (hover to see other rain measurements)
** Current wind speed in m/s (hover to see current wind gust speed)